Time,TemperatureF,DewpointF,PressureIn,WindDirection,WindDirectionDegrees,WindSpeedMPH,WindSpeedGustMPH,Humidity,HourlyPrecipIn,Conditions,Clouds,dailyrainin,SoftwareType,DateUTC
2013-09-04 00:03:00,60.4,57.2,29.91,WSW,250,2.7,3.6,90,-99.99,,,-99.99,perl,2013-09-04 04:03:00,
2013-09-04 00:07:00,60.4,57.2,29.91,WSW,258,3.6,4.5,90,-99.99,,,-99.99,perl,2013-09-04 04:07:00,
2013-09-04 00:09:00,60.4,57.2,29.91,WNW,283,4.4,5.4,90,-99.99,,,-99.99,perl,2013-09-04 04:09:00,
2013-09-04 00:10:00,60.4,57.2,29.91,West,276,4.0,4.0,90,-99.99,,,-99.99,perl,2013-09-04 04:10:00,
2013-09-04 00:15:00,60.4,55.4,29.91,West,275,3.6,5.8,84,-99.99,,,-99.99,perl,2013-09-04 04:15:00,
2013-09-04 00:18:00,60.4,55.4,29.91,WNW,283,3.7,5.4,84,-99.99,,,-99.99,perl,2013-09-04 04:18:00,
2013-09-04 00:21:00,60.4,55.4,29.91,West,271,3.6,3.6,84,-99.99,,,-99.99,perl,2013-09-04 04:21:00,
2013-09-04 00:26:00,60.3,55.4,29.91,West,275,0.0,6.3,84,-99.99,,,-99.99,perl,2013-09-04 04:26:00,
2013-09-04 00:32:00,60.1,55.4,29.91,West,271,2.7,5.8,85,-99.99,,,-99.99,perl,2013-09-04 04:32:00,
2013-09-04 00:37:00,60.1,55.4,29.91,WNW,299,4.6,4.9,85,-99.99,,,-99.99,perl,2013-09-04 04:37:00,
2013-09-04 00:43:00,60.1,55.4,29.94,WSW,249,1.8,4.0,85,-99.99,,,-99.99,perl,2013-09-04 04:43:00,
2013-09-04 00:48:00,60.1,55.4,29.94,West,269,3.0,4.9,85,-99.99,,,-99.99,perl,2013-09-04 04:48:00,
2013-09-04 00:53:00,60.1,55.4,29.94,West,273,3.6,5.8,85,-99.99,,,-99.99,perl,2013-09-04 04:53:00,
2013-09-04 00:58:00,59.9,55.4,29.91,West,267,4.2,4.9,85,-99.99,,,-99.99,perl,2013-09-04 04:58:00,
2013-09-04 01:03:00,59.9,55.4,29.91,West,268,3.4,3.6,85,-99.99,,,-99.99,perl,2013-09-04 05:03:00,
2013-09-04 01:09:00,59.9,55.4,29.91,WSW,258,4.0,4.0,85,-99.99,,,-99.99,perl,2013-09-04 05:09:00,
2013-09-04 01:14:00,59.7,53.6,29.91,West,271,3.6,7.6,81,-99.99,,,-99.99,perl,2013-09-04 05:14:00,
2013-09-04 01:19:00,59.7,53.6,29.91,West,270,4.5,4.9,81,-99.99,,,-99.99,perl,2013-09-04 05:19:00,
2013-09-04 01:24:00,59.5,53.6,29.91,WSW,257,5.0,7.6,81,-99.99,,,-99.99,perl,2013-09-04 05:24:00,
2013-09-04 01:29:00,59.5,53.6,29.91,WNW,299,2.8,3.6,81,-99.99,,,-99.99,perl,2013-09-04 05:29:00,
2013-09-04 01:34:00,59.4,53.6,29.91,WSW,254,2.7,3.1,81,-99.99,,,-99.99,perl,2013-09-04 05:34:00,
2013-09-04 01:39:00,59.4,53.6,29.91,WNW,285,3.4,3.4,81,-99.99,,,-99.99,perl,2013-09-04 05:39:00,
2013-09-04 01:44:00,59.2,55.4,29.94,WNW,283,2.3,2.7,87,-99.99,,,-99.99,perl,2013-09-04 05:44:00,
2013-09-04 01:49:00,59.0,55.4,29.94,West,265,0.9,0.0,88,-99.99,,,-99.99,perl,2013-09-04 05:49:00,
2013-09-04 01:54:00,58.8,55.4,29.94,WSW,255,0.6,0.0,89,-99.99,,,-99.99,perl,2013-09-04 05:54:00,
2013-09-04 01:59:00,58.8,55.4,29.94,WSW,255,0.0,0.0,89,-99.99,,,-99.99,perl,2013-09-04 05:59:00,
2013-09-04 02:04:00,58.6,55.4,29.94,SW,222,0.0,0.0,90,-99.99,,,-99.99,perl,2013-09-04 06:04:00,
2013-09-04 02:10:00,58.3,55.4,29.94,SW,222,0.0,0.0,90,-99.99,,,-99.99,perl,2013-09-04 06:10:00,
2013-09-04 02:15:00,58.1,55.4,29.94,West,260,0.0,0.0,91,-99.99,,,-99.99,perl,2013-09-04 06:15:00,
2013-09-04 02:20:00,57.9,53.6,29.94,West,261,0.0,0.0,86,-99.99,,,-99.99,perl,2013-09-04 06:20:00,
2013-09-04 02:25:00,57.6,53.6,29.94,West,260,0.0,0.0,87,-99.99,,,-99.99,perl,2013-09-04 06:25:00,
2013-09-04 02:30:00,57.2,53.6,29.94,West,260,0.0,0.0,88,-99.99,,,-99.99,perl,2013-09-04 06:30:00,
2013-09-04 02:35:00,57.0,53.6,29.94,West,263,0.0,0.0,89,-99.99,,,-99.99,perl,2013-09-04 06:35:00,
2013-09-04 02:40:00,56.8,53.6,29.94,West,263,0.0,0.0,89,-99.99,,,-99.99,perl,2013-09-04 06:40:00,
2013-09-04 02:46:00,56.7,53.6,29.94,West,262,0.0,0.0,89,-99.99,,,-99.99,perl,2013-09-04 06:46:00,
2013-09-04 02:51:00,56.5,53.6,29.94,West,262,0.0,0.0,90,-99.99,,,-99.99,perl,2013-09-04 06:51:00,
2013-09-04 02:56:00,56.3,53.6,29.94,West,263,0.0,0.0,91,-99.99,,,-99.99,perl,2013-09-04 06:56:00,
2013-09-04 03:01:00,56.3,53.6,29.94,West,262,0.0,0.0,91,-99.99,,,-99.99,perl,2013-09-04 07:01:00,
2013-09-04 03:06:00,56.1,51.8,29.94,West,279,0.0,0.0,85,-99.99,,,-99.99,perl,2013-09-04 07:06:00,
2013-09-04 03:11:00,56.1,53.6,29.94,WNW,290,0.0,0.0,92,-99.99,,,-99.99,perl,2013-09-04 07:11:00,
2013-09-04 03:16:00,56.1,53.6,29.94,WNW,290,0.0,0.0,92,-99.99,,,-99.99,perl,2013-09-04 07:16:00,
2013-09-04 03:21:00,55.9,53.6,29.94,WNW,290,0.0,0.0,92,-99.99,,,-99.99,perl,2013-09-04 07:21:00,
2013-09-04 03:26:00,55.9,53.6,29.94,WNW,290,0.0,0.0,92,-99.99,,,-99.99,perl,2013-09-04 07:26:00,
2013-09-04 03:31:00,55.9,53.6,29.94,WNW,290,0.0,0.0,92,-99.99,,,-99.99,perl,2013-09-04 07:31:00,
2013-09-04 03:37:00,55.9,53.6,29.94,WNW,290,0.0,0.0,92,-99.99,,,-99.99,perl,2013-09-04 07:37:00,
2013-09-04 03:42:00,55.9,53.6,29.94,WNW,290,0.0,0.0,92,-99.99,,,-99.99,perl,2013-09-04 07:42:00,
2013-09-04 03:47:00,55.8,53.6,29.94,WNW,290,0.0,0.0,92,-99.99,,,-99.99,perl,2013-09-04 07:47:00,
2013-09-04 03:52:00,55.6,53.6,29.94,WNW,290,0.0,0.0,93,-99.99,,,-99.99,perl,2013-09-04 07:52:00,
2013-09-04 03:57:00,55.4,53.6,29.94,WNW,290,0.0,0.0,94,-99.99,,,-99.99,perl,2013-09-04 07:57:00,
2013-09-04 04:02:00,55.2,53.6,29.94,WNW,290,0.0,0.0,95,-99.99,,,-99.99,perl,2013-09-04 08:02:00,
2013-09-04 04:07:00,55.2,53.6,29.94,WNW,290,0.0,0.0,95,-99.99,,,-99.99,perl,2013-09-04 08:07:00,
2013-09-04 04:12:00,55.0,53.6,29.94,WNW,289,0.0,0.0,96,-99.99,,,-99.99,perl,2013-09-04 08:12:00,
2013-09-04 04:17:00,54.9,53.6,29.94,WNW,290,0.0,0.0,96,-99.99,,,-99.99,perl,2013-09-04 08:17:00,
2013-09-04 04:22:00,54.9,53.6,29.94,WNW,290,0.0,0.0,96,-99.99,,,-99.99,perl,2013-09-04 08:22:00,
2013-09-04 04:27:00,54.7,53.6,29.94,WNW,290,0.0,0.0,96,-99.99,,,-99.99,perl,2013-09-04 08:27:00,
2013-09-04 04:32:00,54.7,53.6,29.94,WNW,290,0.0,0.0,96,-99.99,,,-99.99,perl,2013-09-04 08:32:00,
2013-09-04 04:37:00,54.5,53.6,29.94,WNW,290,0.0,0.0,97,-99.99,,,-99.99,perl,2013-09-04 08:37:00,
2013-09-04 04:42:00,54.5,53.6,29.94,WNW,290,0.0,0.0,97,-99.99,,,-99.99,perl,2013-09-04 08:42:00,
2013-09-04 04:47:00,54.5,53.6,29.94,WNW,290,0.0,0.0,97,-99.99,,,-99.99,perl,2013-09-04 08:47:00,
2013-09-04 04:52:00,54.3,51.8,29.94,WNW,290,0.0,0.0,91,-99.99,,,-99.99,perl,2013-09-04 08:52:00,
2013-09-04 04:57:00,54.3,51.8,29.94,WNW,289,0.0,0.0,91,-99.99,,,-99.99,perl,2013-09-04 08:57:00,
2013-09-04 05:02:00,54.3,51.8,29.94,WNW,290,0.0,0.0,91,-99.99,,,-99.99,perl,2013-09-04 09:02:00,
2013-09-04 05:07:00,54.3,51.8,29.94,WNW,290,0.0,0.0,91,-99.99,,,-99.99,perl,2013-09-04 09:07:00,
2013-09-04 05:12:00,54.3,51.8,29.94,WNW,289,0.0,0.0,91,-99.99,,,-99.99,perl,2013-09-04 09:12:00,
2013-09-04 05:17:00,54.3,51.8,29.94,WNW,290,0.0,0.0,91,-99.99,,,-99.99,perl,2013-09-04 09:17:00,
2013-09-04 05:22:00,54.5,53.6,29.94,WNW,290,0.0,0.0,97,-99.99,,,-99.99,perl,2013-09-04 09:22:00,
2013-09-04 05:28:00,54.5,53.6,29.94,WNW,299,0.0,0.0,97,-99.99,,,-99.99,perl,2013-09-04 09:28:00,
2013-09-04 05:33:00,54.5,53.6,29.94,WNW,294,0.0,0.0,97,-99.99,,,-99.99,perl,2013-09-04 09:33:00,
2013-09-04 05:38:00,54.5,53.6,29.94,WNW,293,0.0,0.0,97,-99.99,,,-99.99,perl,2013-09-04 09:38:00,
2013-09-04 05:43:00,54.5,53.6,29.94,WNW,293,0.0,0.0,97,-99.99,,,-99.99,perl,2013-09-04 09:43:00,
2013-09-04 05:48:00,54.5,53.6,29.94,WNW,294,0.0,0.0,97,-99.99,,,-99.99,perl,2013-09-04 09:48:00,
2013-09-04 05:54:00,54.5,53.6,29.94,WNW,294,0.0,0.0,97,-99.99,,,-99.99,perl,2013-09-04 09:54:00,
2013-09-04 05:59:00,54.5,53.6,29.94,WNW,294,0.0,0.0,97,-99.99,,,-99.99,perl,2013-09-04 09:59:00,
2013-09-04 06:05:00,54.5,53.6,29.94,WNW,294,0.0,0.0,97,-99.99,,,-99.99,perl,2013-09-04 10:05:00,
2013-09-04 06:10:00,54.5,53.6,29.94,WNW,294,0.0,0.0,97,-99.99,,,-99.99,perl,2013-09-04 10:10:00,
2013-09-04 06:15:00,54.5,55.4,29.94,WNW,294,0.0,0.0,100,-99.99,,,-99.99,perl,2013-09-04 10:15:00,
2013-09-04 06:20:00,54.5,55.4,29.94,West,276,0.0,0.0,100,-99.99,,,-99.99,perl,2013-09-04 10:20:00,
2013-09-04 06:25:00,54.5,55.4,29.94,West,276,0.0,0.0,100,-99.99,,,-99.99,perl,2013-09-04 10:25:00,
2013-09-04 06:31:00,54.3,53.6,29.94,West,276,0.0,0.0,98,-99.99,,,-99.99,perl,2013-09-04 10:31:00,
2013-09-04 06:36:00,54.3,53.6,29.94,West,276,0.0,0.0,98,-99.99,,,-99.99,perl,2013-09-04 10:36:00,
2013-09-04 06:43:00,54.3,53.6,29.97,West,276,0.0,0.0,98,-99.99,,,-99.99,perl,2013-09-04 10:43:00,
2013-09-04 06:48:00,54.3,53.6,29.97,West,275,0.0,0.0,98,-99.99,,,-99.99,perl,2013-09-04 10:48:00,
2013-09-04 06:53:00,54.3,53.6,29.97,West,276,0.0,0.0,98,-99.99,,,-99.99,perl,2013-09-04 10:53:00,
2013-09-04 06:59:00,54.1,53.6,29.97,West,276,0.0,0.0,99,-99.99,,,-99.99,perl,2013-09-04 10:59:00,
2013-09-04 07:04:00,54.3,53.6,29.97,West,276,0.0,0.0,98,-99.99,,,-99.99,perl,2013-09-04 11:04:00,
2013-09-04 07:09:00,54.1,53.6,29.97,West,276,0.0,0.0,99,-99.99,,,-99.99,perl,2013-09-04 11:09:00,
2013-09-04 07:15:00,54.3,53.6,29.97,West,276,0.0,0.0,98,-99.99,,,-99.99,perl,2013-09-04 11:15:00,
2013-09-04 07:20:00,54.3,53.6,29.97,West,276,0.0,0.0,98,-99.99,,,-99.99,perl,2013-09-04 11:20:00,
2013-09-04 07:25:00,54.3,53.6,29.97,West,276,0.0,0.0,98,-99.99,,,-99.99,perl,2013-09-04 11:25:00,
2013-09-04 07:30:00,54.5,55.4,29.97,West,275,0.0,0.0,100,-99.99,,,-99.99,perl,2013-09-04 11:30:00,
2013-09-04 07:35:00,54.5,55.4,29.97,West,263,0.0,0.0,100,-99.99,,,-99.99,perl,2013-09-04 11:35:00,
2013-09-04 07:40:00,54.9,55.4,29.97,West,262,0.0,0.0,100,-99.99,,,-99.99,perl,2013-09-04 11:40:00,
2013-09-04 07:45:00,55.2,55.4,29.97,West,269,0.0,0.0,100,-99.99,,,-99.99,perl,2013-09-04 11:45:00,
2013-09-04 07:51:00,55.6,55.4,29.97,SW,225,0.0,0.0,99,-99.99,,,-99.99,perl,2013-09-04 11:51:00,
2013-09-04 07:56:00,55.9,55.4,29.97,WNW,286,0.0,0.0,99,-99.99,,,-99.99,perl,2013-09-04 11:56:00,
2013-09-04 08:01:00,56.3,57.2,29.97,West,278,0.0,0.0,100,-99.99,,,-99.99,perl,2013-09-04 12:01:00,
2013-09-04 08:06:00,56.7,57.2,29.97,WNW,295,0.0,0.0,100,-99.99,,,-99.99,perl,2013-09-04 12:06:00,
2013-09-04 08:11:00,57.2,57.2,29.97,SW,226,1.3,0.0,100,-99.99,,,-99.99,perl,2013-09-04 12:11:00,
2013-09-04 08:16:00,57.7,57.2,29.97,West,276,0.0,0.0,99,-99.99,,,-99.99,perl,2013-09-04 12:16:00,
2013-09-04 08:21:00,58.3,59.0,29.97,WSW,249,0.0,0.0,100,-99.99,,,-99.99,perl,2013-09-04 12:21:00,
2013-09-04 08:26:00,58.8,59.0,29.97,WNW,286,2.2,3.6,100,-99.99,,,-99.99,perl,2013-09-04 12:26:00,
2013-09-04 08:31:00,59.4,59.0,29.97,WSW,255,0.0,2.7,99,-99.99,,,-99.99,perl,2013-09-04 12:31:00,
2013-09-04 08:36:00,60.1,60.8,29.97,West,264,0.0,0.0,100,-99.99,,,-99.99,perl,2013-09-04 12:36:00,
2013-09-04 08:41:00,60.6,60.8,29.97,South,188,0.0,0.0,100,-99.99,,,-99.99,perl,2013-09-04 12:41:00,
2013-09-04 08:46:00,61.5,60.8,29.97,SSW,196,0.0,0.0,98,-99.99,,,-99.99,perl,2013-09-04 12:46:00,
2013-09-04 08:51:00,61.9,62.6,29.97,West,276,2.7,5.4,100,-99.99,,,-99.99,perl,2013-09-04 12:51:00,
2013-09-04 08:56:00,62.1,62.6,29.97,WNW,287,0.0,0.0,100,-99.99,,,-99.99,perl,2013-09-04 12:56:00,
2013-09-04 09:01:00,62.6,62.6,29.97,West,279,0.0,4.0,100,-99.99,,,-99.99,perl,2013-09-04 13:01:00,
2013-09-04 09:06:00,63.0,60.8,29.97,WNW,284,3.6,5.4,93,-99.99,,,-99.99,perl,2013-09-04 13:06:00,
2013-09-04 09:11:00,63.5,62.6,29.97,West,266,2.2,3.6,97,-99.99,,,-99.99,perl,2013-09-04 13:11:00,
2013-09-04 09:16:00,64.2,60.8,29.97,WSW,255,2.9,4.0,89,-99.99,,,-99.99,perl,2013-09-04 13:16:00,
2013-09-04 09:21:00,64.8,57.2,29.97,WSW,239,4.7,4.7,77,-99.99,,,-99.99,perl,2013-09-04 13:21:00,
2013-09-04 09:26:00,65.3,57.2,29.97,West,265,3.4,5.4,75,-99.99,,,-99.99,perl,2013-09-04 13:26:00,
2013-09-04 09:31:00,65.8,55.4,29.97,WNW,282,4.9,5.8,69,-99.99,,,-99.99,perl,2013-09-04 13:31:00,
2013-09-04 09:36:00,66.0,53.6,29.97,West,274,5.1,10.1,65,-99.99,,,-99.99,perl,2013-09-04 13:36:00,
2013-09-04 09:41:00,66.6,53.6,29.97,West,272,3.0,4.0,63,-99.99,,,-99.99,perl,2013-09-04 13:41:00,
2013-09-04 09:47:00,67.1,53.6,29.97,WNW,290,4.7,6.3,62,-99.99,,,-99.99,perl,2013-09-04 13:47:00,
2013-09-04 09:52:00,67.5,51.8,29.97,WSW,245,4.1,7.6,57,-99.99,,,-99.99,perl,2013-09-04 13:52:00,
2013-09-04 09:57:00,67.6,51.8,29.97,West,268,5.0,8.7,57,-99.99,,,-99.99,perl,2013-09-04 13:57:00,
2013-09-04 10:02:00,67.8,50.0,29.97,WNW,284,3.1,5.4,53,-99.99,,,-99.99,perl,2013-09-04 14:02:00,
2013-09-04 10:07:00,68.2,50.0,29.97,West,270,5.7,8.7,52,-99.99,,,-99.99,perl,2013-09-04 14:07:00,
2013-09-04 10:12:00,68.4,48.2,29.97,WNW,286,4.6,8.1,49,-99.99,,,-99.99,perl,2013-09-04 14:12:00,
2013-09-04 10:17:00,68.7,48.2,29.97,West,265,2.9,3.1,48,-99.99,,,-99.99,perl,2013-09-04 14:17:00,
2013-09-04 10:22:00,69.1,48.2,29.97,West,266,6.5,6.5,47,-99.99,,,-99.99,perl,2013-09-04 14:22:00,
2013-09-04 10:27:00,69.4,48.2,29.97,NW,304,3.2,8.7,47,-99.99,,,-99.99,perl,2013-09-04 14:27:00,
2013-09-04 10:32:00,69.8,48.2,29.97,WSW,251,3.4,5.4,46,-99.99,,,-99.99,perl,2013-09-04 14:32:00,
2013-09-04 10:37:00,70.3,48.2,29.97,NW,319,2.8,0.0,46,-99.99,,,-99.99,perl,2013-09-04 14:37:00,
2013-09-04 10:42:00,70.7,50.0,29.97,West,281,5.5,6.7,48,-99.99,,,-99.99,perl,2013-09-04 14:42:00,
2013-09-04 10:47:00,70.9,50.0,29.97,WNW,288,4.1,11.0,48,-99.99,,,-99.99,perl,2013-09-04 14:47:00,
2013-09-04 10:52:00,70.9,48.2,29.97,WNW,282,6.5,8.7,45,-99.99,,,-99.99,perl,2013-09-04 14:52:00,
2013-09-04 10:57:00,70.9,48.2,29.97,West,270,5.9,10.5,45,-99.99,,,-99.99,perl,2013-09-04 14:57:00,
2013-09-04 11:02:00,71.1,48.2,29.97,WNW,283,8.1,11.4,44,-99.99,,,-99.99,perl,2013-09-04 15:02:00,
2013-09-04 11:07:00,71.2,48.2,29.97,WNW,300,5.0,5.8,44,-99.99,,,-99.99,perl,2013-09-04 15:07:00,
2013-09-04 11:12:00,71.6,44.6,29.94,West,280,4.1,9.6,38,-99.99,,,-99.99,perl,2013-09-04 15:12:00,
2013-09-04 11:17:00,71.8,44.6,29.94,WNW,283,7.3,8.3,38,-99.99,,,-99.99,perl,2013-09-04 15:17:00,
2013-09-04 11:22:00,71.8,44.6,29.94,West,277,7.2,11.0,38,-99.99,,,-99.99,perl,2013-09-04 15:22:00,
2013-09-04 11:27:00,72.1,44.6,29.97,West,264,4.7,6.3,37,-99.99,,,-99.99,perl,2013-09-04 15:27:00,
2013-09-04 11:32:00,72.3,42.8,29.97,WNW,287,6.4,7.6,35,-99.99,,,-99.99,perl,2013-09-04 15:32:00,
2013-09-04 11:38:00,72.7,42.8,29.97,WSW,257,5.1,8.3,34,-99.99,,,-99.99,perl,2013-09-04 15:38:00,
2013-09-04 11:43:00,73.0,44.6,29.94,WNW,287,4.0,5.8,36,-99.99,,,-99.99,perl,2013-09-04 15:43:00,
2013-09-04 11:48:00,73.0,42.8,29.94,West,263,5.6,7.6,34,-99.99,,,-99.99,perl,2013-09-04 15:48:00,
2013-09-04 11:53:00,73.4,42.8,29.94,West,270,3.8,4.9,33,-99.99,,,-99.99,perl,2013-09-04 15:53:00,
2013-09-04 11:58:00,73.6,41.0,29.97,WNW,291,6.6,10.5,31,-99.99,,,-99.99,perl,2013-09-04 15:58:00,
2013-09-04 12:03:00,73.6,41.0,29.97,WSW,257,5.9,5.9,31,-99.99,,,-99.99,perl,2013-09-04 16:03:00,
2013-09-04 12:08:00,73.8,41.0,29.97,WNW,294,5.6,8.1,31,-99.99,,,-99.99,perl,2013-09-04 16:08:00,
2013-09-04 12:13:00,73.9,39.2,29.94,NW,309,6.4,6.4,29,-99.99,,,-99.99,perl,2013-09-04 16:13:00,
2013-09-04 12:18:00,74.1,39.2,29.94,South,175,5.8,7.6,28,-99.99,,,-99.99,perl,2013-09-04 16:18:00,
2013-09-04 12:24:00,74.1,37.4,29.94,West,262,6.3,7.6,26,-99.99,,,-99.99,perl,2013-09-04 16:24:00,
2013-09-04 12:29:00,74.3,39.2,29.94,West,270,4.6,5.8,28,-99.99,,,-99.99,perl,2013-09-04 16:29:00,
2013-09-04 12:34:00,74.7,39.2,29.94,West,266,2.9,3.6,28,-99.99,,,-99.99,perl,2013-09-04 16:34:00,
2013-09-04 12:39:00,75.2,37.4,29.94,West,260,5.8,8.1,25,-99.99,,,-99.99,perl,2013-09-04 16:39:00,
2013-09-04 12:44:00,75.4,37.4,29.94,WNW,300,5.8,9.6,25,-99.99,,,-99.99,perl,2013-09-04 16:44:00,
2013-09-04 12:49:00,75.4,37.4,29.94,WSW,246,4.6,8.3,25,-99.99,,,-99.99,perl,2013-09-04 16:49:00,
2013-09-04 12:54:00,75.7,37.4,29.94,NW,318,4.0,4.0,25,-99.99,,,-99.99,perl,2013-09-04 16:54:00,
2013-09-04 13:00:00,75.9,37.4,29.94,WNW,297,4.9,13.2,25,-99.99,,,-99.99,perl,2013-09-04 17:00:00,
2013-09-04 13:05:00,75.9,37.4,29.94,WSW,251,3.6,3.6,25,-99.99,,,-99.99,perl,2013-09-04 17:05:00,
2013-09-04 13:10:00,76.3,39.2,29.94,WNW,289,3.2,6.3,26,-99.99,,,-99.99,perl,2013-09-04 17:10:00,
2013-09-04 13:15:00,76.3,35.6,29.94,WSW,246,6.8,10.1,23,-99.99,,,-99.99,perl,2013-09-04 17:15:00,
2013-09-04 13:20:00,76.3,35.6,29.94,WNW,297,4.8,11.0,23,-99.99,,,-99.99,perl,2013-09-04 17:20:00,
2013-09-04 13:25:00,76.8,35.6,29.94,WSW,256,5.0,12.3,23,-99.99,,,-99.99,perl,2013-09-04 17:25:00,
2013-09-04 13:30:00,77.0,35.6,29.94,WNW,295,4.4,11.9,22,-99.99,,,-99.99,perl,2013-09-04 17:30:00,
2013-09-04 13:35:00,77.0,35.6,29.94,SSE,153,3.4,4.0,22,-99.99,,,-99.99,perl,2013-09-04 17:35:00,
2013-09-04 13:40:00,77.0,35.6,29.94,WNW,292,3.8,3.8,22,-99.99,,,-99.99,perl,2013-09-04 17:40:00,
2013-09-04 13:45:00,77.4,35.6,29.94,WNW,293,3.8,4.0,22,-99.99,,,-99.99,perl,2013-09-04 17:45:00,
2013-09-04 13:51:00,76.8,37.4,29.94,WSW,252,4.3,4.9,24,-99.99,,,-99.99,perl,2013-09-04 17:51:00,
2013-09-04 13:56:00,76.6,37.4,29.94,WNW,296,5.5,8.1,24,-99.99,,,-99.99,perl,2013-09-04 17:56:00,
2013-09-04 14:01:00,76.5,39.2,29.94,West,274,7.5,10.5,26,-99.99,,,-99.99,perl,2013-09-04 18:01:00,
2013-09-04 14:06:00,76.5,39.2,29.94,WNW,296,3.6,6.3,26,-99.99,,,-99.99,perl,2013-09-04 18:06:00,
2013-09-04 14:11:00,76.3,37.4,29.94,West,260,4.9,6.3,24,-99.99,,,-99.99,perl,2013-09-04 18:11:00,
2013-09-04 14:16:00,76.3,37.4,29.94,West,276,6.5,8.7,24,-99.99,,,-99.99,perl,2013-09-04 18:16:00,
2013-09-04 14:21:00,76.1,37.4,29.94,WSW,256,8.4,8.7,25,-99.99,,,-99.99,perl,2013-09-04 18:21:00,
2013-09-04 14:26:00,75.9,35.6,29.94,WNW,291,7.3,10.5,23,-99.99,,,-99.99,perl,2013-09-04 18:26:00,
2013-09-04 14:31:00,76.3,39.2,29.94,WNW,287,5.0,6.3,26,-99.99,,,-99.99,perl,2013-09-04 18:31:00,
2013-09-04 14:36:00,77.0,35.6,29.94,West,262,5.1,8.1,22,-99.99,,,-99.99,perl,2013-09-04 18:36:00,
2013-09-04 14:41:00,77.4,35.6,29.94,WNW,294,4.7,4.7,22,-99.99,,,-99.99,perl,2013-09-04 18:41:00,
2013-09-04 14:46:00,77.0,37.4,29.94,WNW,285,4.8,10.5,24,-99.99,,,-99.99,perl,2013-09-04 18:46:00,
2013-09-04 14:51:00,76.3,39.2,29.94,WNW,286,6.8,8.3,26,-99.99,,,-99.99,perl,2013-09-04 18:51:00,
2013-09-04 14:56:00,76.6,39.2,29.94,West,272,5.8,15.4,26,-99.99,,,-99.99,perl,2013-09-04 18:56:00,
2013-09-04 15:01:00,76.3,39.2,29.94,WNW,292,7.1,9.2,26,-99.99,,,-99.99,perl,2013-09-04 19:01:00,
2013-09-04 15:06:00,75.9,39.2,29.94,SW,218,5.6,5.6,27,-99.99,,,-99.99,perl,2013-09-04 19:06:00,
2013-09-04 15:11:00,76.6,41.0,29.94,West,268,5.1,6.3,28,-99.99,,,-99.99,perl,2013-09-04 19:11:00,
2013-09-04 15:16:00,77.2,41.0,29.94,WNW,300,3.7,3.7,27,-99.99,,,-99.99,perl,2013-09-04 19:16:00,
2013-09-04 15:21:00,77.2,39.2,29.94,West,274,5.4,5.8,26,-99.99,,,-99.99,perl,2013-09-04 19:21:00,
2013-09-04 15:26:00,76.6,39.2,29.94,West,274,7.2,7.2,26,-99.99,,,-99.99,perl,2013-09-04 19:26:00,
2013-09-04 15:31:00,76.5,39.2,29.94,West,276,6.7,8.1,26,-99.99,,,-99.99,perl,2013-09-04 19:31:00,
2013-09-04 15:36:00,76.6,41.0,29.94,NW,313,3.0,4.0,28,-99.99,,,-99.99,perl,2013-09-04 19:36:00,
2013-09-04 15:41:00,76.8,41.0,29.94,South,180,5.5,5.5,28,-99.99,,,-99.99,perl,2013-09-04 19:41:00,
2013-09-04 15:46:00,76.8,42.8,29.94,West,278,5.6,5.6,30,-99.99,,,-99.99,perl,2013-09-04 19:46:00,
2013-09-04 15:51:00,76.6,41.0,29.94,WNW,299,6.6,6.6,28,-99.99,,,-99.99,perl,2013-09-04 19:51:00,
2013-09-04 15:57:00,76.5,44.6,29.94,West,263,3.9,3.9,32,-99.99,,,-99.99,perl,2013-09-04 19:57:00,
2013-09-04 16:02:00,76.8,44.6,29.94,WNW,293,4.9,8.3,32,-99.99,,,-99.99,perl,2013-09-04 20:02:00,
2013-09-04 16:07:00,76.8,44.6,29.94,WSW,258,4.5,5.4,32,-99.99,,,-99.99,perl,2013-09-04 20:07:00,
2013-09-04 16:12:00,77.0,44.6,29.94,NW,320,3.2,4.0,32,-99.99,,,-99.99,perl,2013-09-04 20:12:00,
2013-09-04 16:17:00,76.6,44.6,29.94,WNW,298,8.0,8.7,32,-99.99,,,-99.99,perl,2013-09-04 20:17:00,
2013-09-04 16:22:00,76.3,44.6,29.94,West,278,6.5,11.4,32,-99.99,,,-99.99,perl,2013-09-04 20:22:00,
2013-09-04 16:27:00,75.6,44.6,29.94,SSW,205,4.8,8.3,33,-99.99,,,-99.99,perl,2013-09-04 20:27:00,
2013-09-04 16:32:00,75.7,46.4,29.94,West,277,5.8,8.3,36,-99.99,,,-99.99,perl,2013-09-04 20:32:00,
2013-09-04 16:37:00,75.6,46.4,29.94,WNW,297,4.9,4.9,36,-99.99,,,-99.99,perl,2013-09-04 20:37:00,
2013-09-04 16:42:00,75.6,46.4,29.94,West,281,7.3,10.1,36,-99.99,,,-99.99,perl,2013-09-04 20:42:00,
2013-09-04 16:47:00,75.0,48.2,29.94,WSW,252,7.3,7.6,39,-99.99,,,-99.99,perl,2013-09-04 20:47:00,
2013-09-04 16:52:00,74.5,48.2,29.94,West,269,4.4,4.4,39,-99.99,,,-99.99,perl,2013-09-04 20:52:00,
2013-09-04 16:57:00,73.9,48.2,29.94,WNW,298,2.7,4.0,40,-99.99,,,-99.99,perl,2013-09-04 20:57:00,
2013-09-04 17:02:00,74.3,50.0,29.94,West,273,6.0,10.5,42,-99.99,,,-99.99,perl,2013-09-04 21:02:00,
2013-09-04 17:07:00,74.7,50.0,29.94,West,271,4.4,8.3,42,-99.99,,,-99.99,perl,2013-09-04 21:07:00,
2013-09-04 17:12:00,74.7,50.0,29.94,WSW,246,6.0,6.3,42,-99.99,,,-99.99,perl,2013-09-04 21:12:00,
2013-09-04 17:17:00,74.8,50.0,29.94,West,274,4.0,10.1,42,-99.99,,,-99.99,perl,2013-09-04 21:17:00,
2013-09-04 17:22:00,74.8,50.0,29.94,West,272,4.0,5.8,42,-99.99,,,-99.99,perl,2013-09-04 21:22:00,
2013-09-04 17:27:00,74.8,50.0,29.94,WSW,241,0.0,0.0,42,-99.99,,,-99.99,perl,2013-09-04 21:27:00,
2013-09-04 17:32:00,74.7,50.0,29.94,West,272,4.0,5.8,42,-99.99,,,-99.99,perl,2013-09-04 21:32:00,
2013-09-04 17:37:00,74.5,50.0,29.94,WNW,291,5.1,9.6,42,-99.99,,,-99.99,perl,2013-09-04 21:37:00,
2013-09-04 17:42:00,74.3,50.0,29.91,WSW,248,4.6,5.4,42,-99.99,,,-99.99,perl,2013-09-04 21:42:00,
2013-09-04 17:48:00,74.5,50.0,29.91,West,281,7.3,10.1,42,-99.99,,,-99.99,perl,2013-09-04 21:48:00,
2013-09-04 17:54:00,74.1,48.2,29.91,WNW,286,4.5,5.8,40,-99.99,,,-99.99,perl,2013-09-04 21:54:00,
2013-09-04 17:59:00,74.1,48.2,29.91,West,272,6.0,7.6,40,-99.99,,,-99.99,perl,2013-09-04 21:59:00,
2013-09-04 18:04:00,73.8,46.4,29.91,SW,226,6.0,15.9,38,-99.99,,,-99.99,perl,2013-09-04 22:04:00,
2013-09-04 18:10:00,73.4,48.2,29.94,West,280,7.3,8.1,41,-99.99,,,-99.99,perl,2013-09-04 22:10:00,
2013-09-04 18:15:00,73.2,48.2,29.94,WNW,284,5.7,5.7,41,-99.99,,,-99.99,perl,2013-09-04 22:15:00,
2013-09-04 18:20:00,72.7,48.2,29.94,WNW,285,5.8,11.9,42,-99.99,,,-99.99,perl,2013-09-04 22:20:00,
2013-09-04 18:25:00,72.5,48.2,29.91,West,273,4.3,4.3,42,-99.99,,,-99.99,perl,2013-09-04 22:25:00,
2013-09-04 18:30:00,72.5,48.2,29.91,WNW,283,5.6,7.6,42,-99.99,,,-99.99,perl,2013-09-04 22:30:00,
2013-09-04 18:35:00,72.5,48.2,29.91,WNW,296,5.8,15.4,42,-99.99,,,-99.99,perl,2013-09-04 22:35:00,
2013-09-04 18:40:00,72.3,48.2,29.91,West,267,5.4,5.4,43,-99.99,,,-99.99,perl,2013-09-04 22:40:00,
2013-09-04 18:45:00,72.1,48.2,29.91,West,270,4.3,5.8,43,-99.99,,,-99.99,perl,2013-09-04 22:45:00,
2013-09-04 18:50:00,71.8,48.2,29.91,West,270,6.9,10.1,43,-99.99,,,-99.99,perl,2013-09-04 22:50:00,
2013-09-04 18:55:00,71.6,48.2,29.91,West,278,4.9,8.3,44,-99.99,,,-99.99,perl,2013-09-04 22:55:00,
2013-09-04 19:00:00,71.4,50.0,29.91,West,269,4.8,5.8,47,-99.99,,,-99.99,perl,2013-09-04 23:00:00,
2013-09-04 19:05:00,71.2,50.0,29.91,West,281,4.9,8.3,47,-99.99,,,-99.99,perl,2013-09-04 23:05:00,
2013-09-04 19:10:00,71.2,50.0,29.91,WNW,289,7.0,7.6,47,-99.99,,,-99.99,perl,2013-09-04 23:10:00,
2013-09-04 19:15:00,71.2,51.8,29.91,West,271,5.7,8.1,50,-99.99,,,-99.99,perl,2013-09-04 23:15:00,
2013-09-04 19:21:00,71.1,51.8,29.91,West,265,2.6,6.3,50,-99.99,,,-99.99,perl,2013-09-04 23:21:00,
2013-09-04 19:26:00,70.9,51.8,29.91,WNW,294,5.4,7.6,51,-99.99,,,-99.99,perl,2013-09-04 23:26:00,
2013-09-04 19:31:00,70.9,53.6,29.91,West,281,4.3,5.4,54,-99.99,,,-99.99,perl,2013-09-04 23:31:00,
2013-09-04 19:36:00,70.7,53.6,29.91,West,265,4.4,4.9,55,-99.99,,,-99.99,perl,2013-09-04 23:36:00,
2013-09-04 19:41:00,70.7,53.6,29.94,WNW,284,5.9,5.9,55,-99.99,,,-99.99,perl,2013-09-04 23:41:00,
2013-09-04 19:46:00,70.7,55.4,29.94,West,263,3.6,5.8,58,-99.99,,,-99.99,perl,2013-09-04 23:46:00,
2013-09-04 19:51:00,70.5,53.6,29.94,WNW,287,4.0,10.5,55,-99.99,,,-99.99,perl,2013-09-04 23:51:00,
2013-09-04 19:56:00,70.5,53.6,29.94,West,276,6.3,6.3,55,-99.99,,,-99.99,perl,2013-09-04 23:56:00,
2013-09-04 20:01:00,70.5,55.4,29.94,West,262,4.6,5.8,59,-99.99,,,-99.99,perl,2013-09-05 00:01:00,
2013-09-04 20:06:00,70.3,55.4,29.94,West,269,4.3,5.4,60,-99.99,,,-99.99,perl,2013-09-05 00:06:00,
2013-09-04 20:11:00,70.0,57.2,29.94,West,271,4.9,12.3,64,-99.99,,,-99.99,perl,2013-09-05 00:11:00,
2013-09-04 20:16:00,69.6,57.2,29.94,West,267,5.2,10.1,65,-99.99,,,-99.99,perl,2013-09-05 00:16:00,
2013-09-04 20:21:00,69.3,59.0,29.94,WNW,295,7.0,8.3,70,-99.99,,,-99.99,perl,2013-09-05 00:21:00,
2013-09-04 20:26:00,69.1,59.0,29.94,WNW,288,7.0,10.1,70,-99.99,,,-99.99,perl,2013-09-05 00:26:00,
2013-09-04 20:31:00,68.9,60.8,29.94,WNW,288,4.5,6.3,75,-99.99,,,-99.99,perl,2013-09-05 00:31:00,
2013-09-04 20:36:00,68.9,60.8,29.94,West,276,4.4,5.8,75,-99.99,,,-99.99,perl,2013-09-05 00:36:00,
2013-09-04 20:41:00,68.7,59.0,29.94,WSW,253,5.0,7.6,72,-99.99,,,-99.99,perl,2013-09-05 00:41:00,
2013-09-04 20:46:00,68.4,59.0,29.94,WSW,257,5.1,5.1,72,-99.99,,,-99.99,perl,2013-09-05 00:46:00,
2013-09-04 20:51:00,68.2,60.8,29.94,West,280,4.7,6.3,77,-99.99,,,-99.99,perl,2013-09-05 00:51:00,
2013-09-04 20:56:00,68.2,60.8,29.94,West,271,4.7,4.7,77,-99.99,,,-99.99,perl,2013-09-05 00:56:00,
2013-09-04 21:01:00,68.2,60.8,29.94,West,269,4.9,5.8,77,-99.99,,,-99.99,perl,2013-09-05 01:01:00,
2013-09-04 21:06:00,68.2,60.8,29.94,West,266,4.8,6.7,77,-99.99,,,-99.99,perl,2013-09-05 01:06:00,
2013-09-04 21:11:00,68.2,60.8,29.94,West,274,5.6,8.7,77,-99.99,,,-99.99,perl,2013-09-05 01:11:00,
2013-09-04 21:16:00,68.2,60.8,29.94,WNW,287,5.3,6.7,77,-99.99,,,-99.99,perl,2013-09-05 01:16:00,
2013-09-04 21:21:00,68.2,60.8,29.94,West,266,3.6,4.0,77,-99.99,,,-99.99,perl,2013-09-05 01:21:00,
2013-09-04 21:26:00,68.2,60.8,29.94,West,273,2.6,3.6,77,-99.99,,,-99.99,perl,2013-09-05 01:26:00,
2013-09-04 21:31:00,68.2,60.8,29.94,West,274,5.3,7.6,77,-99.99,,,-99.99,perl,2013-09-05 01:31:00,
2013-09-04 21:36:00,68.2,60.8,29.94,NW,308,3.6,3.6,77,-99.99,,,-99.99,perl,2013-09-05 01:36:00,
2013-09-04 21:41:00,68.2,60.8,29.94,West,262,0.0,0.0,77,-99.99,,,-99.99,perl,2013-09-05 01:41:00,
2013-09-04 21:46:00,68.2,60.8,29.94,WSW,257,0.0,4.5,77,-99.99,,,-99.99,perl,2013-09-05 01:46:00,
2013-09-04 21:51:00,68.2,60.8,29.94,NW,320,0.0,0.0,77,-99.99,,,-99.99,perl,2013-09-05 01:51:00,
2013-09-04 21:56:00,68.2,60.8,29.94,NW,320,0.0,0.0,77,-99.99,,,-99.99,perl,2013-09-05 01:56:00,
2013-09-04 22:01:00,67.8,60.8,29.94,NW,319,0.0,0.0,79,-99.99,,,-99.99,perl,2013-09-05 02:01:00,
2013-09-04 22:07:00,67.5,62.6,29.94,NW,324,0.0,0.0,84,-99.99,,,-99.99,perl,2013-09-05 02:07:00,
2013-09-04 22:12:00,67.1,62.6,29.94,NW,326,0.0,0.0,86,-99.99,,,-99.99,perl,2013-09-05 02:12:00,
2013-09-04 22:17:00,66.7,60.8,29.94,West,268,0.0,0.0,82,-99.99,,,-99.99,perl,2013-09-05 02:17:00,
2013-09-04 22:22:00,66.6,60.8,29.94,WSW,249,0.0,0.0,82,-99.99,,,-99.99,perl,2013-09-05 02:22:00,
2013-09-04 22:27:00,66.4,60.8,29.94,WSW,242,0.0,3.6,82,-99.99,,,-99.99,perl,2013-09-05 02:27:00,
2013-09-04 22:32:00,66.2,60.8,29.94,WSW,238,0.0,0.0,83,-99.99,,,-99.99,perl,2013-09-05 02:32:00,
2013-09-04 22:37:00,66.2,60.8,29.94,WSW,238,0.0,0.0,83,-99.99,,,-99.99,perl,2013-09-05 02:37:00,
2013-09-04 22:42:00,66.0,60.8,29.94,WSW,238,0.0,0.0,84,-99.99,,,-99.99,perl,2013-09-05 02:42:00,
2013-09-04 22:47:00,66.0,60.8,29.94,WSW,240,0.0,0.0,84,-99.99,,,-99.99,perl,2013-09-05 02:47:00,
2013-09-04 22:52:00,65.8,60.8,29.94,NW,304,0.0,0.0,84,-99.99,,,-99.99,perl,2013-09-05 02:52:00,
2013-09-04 22:57:00,65.7,60.8,29.94,NW,307,0.0,0.0,84,-99.99,,,-99.99,perl,2013-09-05 02:57:00,
2013-09-04 23:02:00,65.5,60.8,29.94,NW,307,0.0,0.0,85,-99.99,,,-99.99,perl,2013-09-05 03:02:00,
2013-09-04 23:07:00,65.3,62.6,29.94,NW,307,0.0,0.0,91,-99.99,,,-99.99,perl,2013-09-05 03:07:00,
2013-09-04 23:12:00,65.1,60.8,29.97,NW,308,0.0,0.0,86,-99.99,,,-99.99,perl,2013-09-05 03:12:00,
2013-09-04 23:17:00,64.9,60.8,29.97,NW,307,0.0,0.0,87,-99.99,,,-99.99,perl,2013-09-05 03:17:00,
2013-09-04 23:22:00,64.8,60.8,29.97,NW,307,0.0,0.0,87,-99.99,,,-99.99,perl,2013-09-05 03:22:00,
2013-09-04 23:27:00,64.4,60.8,29.94,NW,307,0.0,0.0,88,-99.99,,,-99.99,perl,2013-09-05 03:27:00,
2013-09-04 23:32:00,64.4,60.8,29.94,NW,307,0.0,0.0,88,-99.99,,,-99.99,perl,2013-09-05 03:32:00,
2013-09-04 23:37:00,64.2,60.8,29.94,NW,307,0.0,0.0,89,-99.99,,,-99.99,perl,2013-09-05 03:37:00,
2013-09-04 23:42:00,63.9,60.8,29.94,NW,307,0.0,0.0,90,-99.99,,,-99.99,perl,2013-09-05 03:42:00,
2013-09-04 23:47:00,63.9,60.8,29.94,NW,311,0.0,0.0,90,-99.99,,,-99.99,perl,2013-09-05 03:47:00,
2013-09-04 23:52:00,63.7,60.8,29.94,NNW,328,0.0,0.0,90,-99.99,,,-99.99,perl,2013-09-05 03:52:00,
2013-09-04 23:58:00,63.5,60.8,29.97,NNW,330,0.0,0.0,91,-99.99,,,-99.99,perl,2013-09-05 03:58:00,